Home > Weather > Riga > Past weeks

Flag for Latvia Past Weather in Riga, Latvia — Yesterday and Last 2 Weeks

Now
64 °F

Clear.


Feels Like: 64 °F
Forecast: 60 / 77 °F
Wind: No wind

Location: Riga Airport

Current Time: Jul 28, 2016 at 2:14:43 AM

Latest Report: Jul 28, 2016 at 1:20 AM


Visibility: 6 mi

Pressure: 29.98 "Hg

Humidity: 94%

Dew Point: 63 °F

Location of RigaLocation

Past Weather in Riga — Graph

°F

Riga Temperature Yesterday

Maximum temperature yesterday: 82 °F (at 3:50 PM)
Minimum temperature yesterday: 64 °F (at 5:20 AM)
Average temperature yesterday: 73 °F

High & Low Weather Summary for the Past Weeks

 TemperatureHumidityPressure
High82 °F (Jul 27, 3:50 PM)100% (Jul 13, 11:50 PM)30.12 "Hg (Jul 13, 11:50 PM)
Low50 °F (Jul 14, 4:50 AM)46% (Jul 14, 3:20 PM)29.56 "Hg (Jul 15, 6:20 AM)
Average66 °F80%29.95 "Hg
* Reported Jul 13 12:20 AM — Jul 28 12:50 AM, Riga, Weather by CustomWeather, © 2016

Note: Actual official high and low records may vary slightly from our data, if they occured in-between our weather recording intervals... More about our weather records

Advertising

Riga Weather History for the Previous 24 Hours

Scroll right to see more
 ConditionsComfort  
Time TempWeatherWind HumidityBarometerVisibility
12:50 AM
Thu, Jul 28
64 °FClear.No wind94%29.98 "Hg10 mi
12:20 AM64 °FClear.No wind94%29.98 "Hg10 mi
11:50 PM
Wed, Jul 27
64 °FClear.2 mph94%29.98 "Hg10 mi
11:20 PM66 °FClear.3 mph88%29.98 "Hg10 mi
10:50 PM68 °FClear.2 mph88%29.98 "Hg10 mi
10:20 PM68 °FSunny.2 mph88%29.98 "Hg10 mi
9:50 PM72 °FSunny.2 mph78%29.98 "Hg10 mi
9:20 PM75 °FClear.5 mph69%29.98 "Hg6 mi
8:50 PM77 °FSunny.5 mph61%29.98 "Hg10 mi
8:20 PM79 °FSunny.6 mph61%29.98 "Hg10 mi
7:50 PM79 °FScattered clouds.3 mph58%29.98 "HgN/A
7:20 PM79 °FScattered clouds.2 mph58%29.98 "HgN/A
6:50 PM81 °FScattered clouds.5 mph54%29.98 "HgN/A
6:20 PM81 °FScattered clouds.5 mph51%29.98 "HgN/A
5:50 PM81 °FPassing clouds.7 mph51%29.98 "HgN/A
5:20 PM81 °FScattered clouds.5 mph54%30.01 "HgN/A
4:50 PM81 °FScattered clouds.6 mph51%30.01 "HgN/A
4:20 PM82 °FScattered clouds.8 mph51%30.01 "HgN/A
3:50 PM82 °FScattered clouds.6 mph48%30.01 "HgN/A
3:20 PM79 °FScattered clouds.6 mph58%30.01 "HgN/A
2:50 PM79 °FScattered clouds.6 mph58%30.01 "HgN/A
2:20 PM77 °FScattered clouds.5 mph65%30.04 "HgN/A
1:50 PM79 °FScattered clouds.5 mph61%30.04 "HgN/A
1:20 PM77 °FScattered clouds.5 mph69%30.04 "HgN/A
12:50 PM79 °FScattered clouds.6 mph65%30.04 "HgN/A
12:20 PM75 °FScattered clouds.5 mph65%30.04 "HgN/A
11:50 AM77 °FScattered clouds.6 mph65%30.04 "HgN/A
11:20 AM75 °FScattered clouds.3 mph65%30.04 "HgN/A
10:50 AM73 °FScattered clouds.5 mph74%30.04 "HgN/A
10:20 AM73 °FScattered clouds.5 mph69%30.04 "HgN/A
9:50 AM70 °FScattered clouds.5 mph83%30.07 "HgN/A
9:20 AM70 °FScattered clouds.5 mph83%30.04 "HgN/A
8:50 AM68 °FPartly sunny.7 mph88%30.04 "HgN/A
8:20 AM68 °FScattered clouds.6 mph88%30.04 "HgN/A
7:50 AM68 °FPassing clouds.5 mph88%30.04 "HgN/A
7:20 AM68 °FPassing clouds.3 mph88%30.04 "HgN/A
6:50 AM66 °FPassing clouds.No wind94%30.04 "Hg6 mi
6:20 AM64 °FPassing clouds.1 mph94%30.04 "Hg6 mi
5:50 AM64 °FPassing clouds.1 mph94%30.04 "Hg5 mi
5:20 AM64 °FPassing clouds.2 mph100%30.04 "Hg5 mi
4:50 AM66 °FPassing clouds.2 mph94%30.04 "Hg6 mi
4:20 AM68 °FPassing clouds.3 mph88%30.04 "HgN/A
3:50 AM66 °FClear.5 mph94%30.01 "Hg10 mi
3:20 AM66 °FClear.5 mph94%30.01 "Hg10 mi
2:50 AM68 °FClear.6 mph94%30.01 "Hg10 mi
2:20 AM68 °FPassing clouds.5 mph94%30.01 "HgN/A
Weather by CustomWeather, © 2016

See weather overviewHow to use our weather pages